PGT437 LUKK-LTFJ

Flight info

Callsign PGT437
Flight time 1h 18m
Altitude 37000
Route LIPTA DCT KODRU DCT RIPGA DCT PILAT DCT LUGEB DCT MATEL L620 GINLI
Aircraft A20N/M-SDE2E3FGHIRWXY/LB1

Departure

Time 2026-05-01 13:07
Airport Chişinău International Airport (LUKK)

Arrival

Time 2026-05-01 14:26
Airport Istanbul Sabiha Gökçen International Airport (LTFJ)
Time Latitude Longitude Altitude Speed Heading
2026-05-01 12:36 46.93239 28.93538 408 ft 0 kts 277°
2026-05-01 13:00 46.93241 28.93518 403 ft 4 kts 277°
2026-05-01 13:01 46.93190 28.93450 406 ft 11 kts 187°
2026-05-01 13:01 46.93158 28.93357 410 ft 13 kts 275°
2026-05-01 13:01 46.93185 28.93035 406 ft 18 kts 277°
2026-05-01 13:02 46.93202 28.92834 407 ft 21 kts 277°
2026-05-01 13:07 46.89933 29.09604 4972 ft 275 kts 174°
2026-05-01 13:07 46.88036 29.09340 5941 ft 278 kts 201°
2026-05-01 13:07 46.86443 29.07871 6928 ft 274 kts 229°
2026-05-01 13:08 46.85450 29.05512 7754 ft 276 kts 253°
2026-05-01 13:08 46.84856 29.02831 8654 ft 279 kts 255°
2026-05-01 13:08 46.84140 29.00160 9582 ft 284 kts 248°
2026-05-01 13:08 46.83196 28.97587 10459 ft 290 kts 241°
2026-05-01 13:09 46.82056 28.95032 10909 ft 311 kts 237°
2026-05-01 13:09 46.80756 28.92405 11161 ft 334 kts 235°
2026-05-01 13:09 46.79326 28.89641 11726 ft 345 kts 235°
2026-05-01 13:09 46.77863 28.86840 12503 ft 349 kts 234°
2026-05-01 13:10 46.76380 28.83993 13306 ft 354 kts 235°
2026-05-01 13:10 46.74886 28.81112 14069 ft 359 kts 235°
2026-05-01 13:10 46.73365 28.78176 14700 ft 365 kts 235°
2026-05-01 13:10 46.71824 28.75202 15390 ft 369 kts 235°
2026-05-01 13:11 46.70269 28.72200 16090 ft 373 kts 235°
2026-05-01 13:11 46.68696 28.69164 16763 ft 377 kts 235°
2026-05-01 13:11 46.67108 28.66100 17447 ft 381 kts 235°
2026-05-01 13:11 46.65501 28.63000 18112 ft 385 kts 235°
2026-05-01 13:12 46.63885 28.59924 18721 ft 391 kts 233°
2026-05-01 13:12 46.62006 28.57030 19332 ft 395 kts 224°
2026-05-01 13:12 46.59842 28.54522 19927 ft 400 kts 217°
2026-05-01 13:12 46.57564 28.52165 20509 ft 403 kts 217°
2026-05-01 13:13 46.55274 28.49782 21105 ft 406 kts 217°
2026-05-01 13:13 46.52968 28.47376 21671 ft 409 kts 217°
2026-05-01 13:13 46.50649 28.44955 22269 ft 412 kts 217°
2026-05-01 13:13 46.48303 28.42507 22830 ft 416 kts 217°
2026-05-01 13:14 46.45948 28.40053 23397 ft 419 kts 217°
2026-05-01 13:14 46.43572 28.37580 23943 ft 422 kts 217°
2026-05-01 13:14 46.41180 28.35093 24414 ft 424 kts 217°
2026-05-01 13:14 46.38775 28.32596 24893 ft 426 kts 217°
2026-05-01 13:15 46.36355 28.30085 25337 ft 429 kts 217°
2026-05-01 13:15 46.33921 28.27564 25830 ft 430 kts 217°
2026-05-01 13:15 46.31484 28.25041 26300 ft 432 kts 217°
2026-05-01 13:15 46.29062 28.22537 26720 ft 434 kts 217°
2026-05-01 13:16 46.26592 28.19987 27152 ft 437 kts 217°
2026-05-01 13:16 46.24115 28.17431 27575 ft 439 kts 217°
2026-05-01 13:16 46.21585 28.14922 27969 ft 442 kts 212°
2026-05-01 13:17 46.12781 28.10911 29108 ft 451 kts 189°
2026-05-01 13:17 46.09668 28.10229 29461 ft 453 kts 189°
2026-05-01 13:18 46.03419 28.08839 30237 ft 456 kts 190°
2026-05-01 13:18 46.00277 28.08134 30524 ft 458 kts 190°
2026-05-01 13:18 45.97109 28.07422 30766 ft 461 kts 190°
2026-05-01 13:18 45.93934 28.06710 31043 ft 463 kts 190°
2026-05-01 13:19 45.90744 28.05996 31309 ft 465 kts 190°
2026-05-01 13:19 45.87528 28.05277 31621 ft 466 kts 190°
2026-05-01 13:19 45.81151 28.03855 32279 ft 467 kts 190°
2026-05-01 13:20 45.77930 28.03138 32578 ft 468 kts 190°
2026-05-01 13:20 45.74714 28.02422 32923 ft 468 kts 190°
2026-05-01 13:20 45.71500 28.01708 33281 ft 467 kts 190°
2026-05-01 13:21 45.65063 28.00280 33864 ft 468 kts 189°
2026-05-01 13:21 45.61833 27.99565 34164 ft 469 kts 190°
2026-05-01 13:21 45.58601 27.98850 34412 ft 469 kts 189°
2026-05-01 13:21 45.55380 27.98138 34689 ft 468 kts 189°
2026-05-01 13:22 45.52203 27.97437 34966 ft 467 kts 189°
2026-05-01 13:22 45.48975 27.96725 35183 ft 467 kts 190°
2026-05-01 13:22 45.45767 27.96019 35418 ft 467 kts 190°
2026-05-01 13:22 45.42555 27.95313 35632 ft 467 kts 190°
2026-05-01 13:23 45.39373 27.94614 35869 ft 466 kts 190°
2026-05-01 13:23 45.36164 27.93910 36084 ft 466 kts 190°
2026-05-01 13:23 45.32917 27.93198 36316 ft 466 kts 190°
2026-05-01 13:23 45.29756 27.92506 36499 ft 466 kts 190°
2026-05-01 13:24 45.26549 27.91805 36702 ft 466 kts 190°
2026-05-01 13:24 45.23331 27.91183 36874 ft 467 kts 185°
2026-05-01 13:24 45.20084 27.91137 37089 ft 467 kts 176°
2026-05-01 13:25 45.13721 27.93064 37282 ft 469 kts 159°
2026-05-01 13:25 45.07647 27.96354 37281 ft 465 kts 160°
2026-05-01 13:26 45.01585 27.99596 37283 ft 466 kts 160°
2026-05-01 13:26 44.95558 28.02799 37282 ft 466 kts 160°
2026-05-01 13:27 44.89481 28.06021 37277 ft 466 kts 160°
2026-05-01 13:27 44.80333 28.10584 37282 ft 462 kts 167°
2026-05-01 13:28 44.70995 28.14075 37279 ft 463 kts 167°
2026-05-01 13:29 44.58542 28.18748 37278 ft 463 kts 167°
2026-05-01 13:31 44.39883 28.25716 37270 ft 462 kts 167°
2026-05-01 13:32 44.24405 28.31460 37274 ft 460 kts 167°
2026-05-01 13:33 44.08947 28.37166 37256 ft 459 kts 167°
2026-05-01 13:34 43.96607 28.41699 37237 ft 458 kts 167°
2026-05-01 13:35 43.87386 28.45074 37246 ft 458 kts 168°
2026-05-01 13:36 43.78136 28.48447 37241 ft 458 kts 168°
2026-05-01 13:36 43.68946 28.51985 37242 ft 459 kts 165°
2026-05-01 13:37 43.62858 28.54712 37249 ft 459 kts 165°
2026-05-01 13:37 43.56757 28.57395 37253 ft 460 kts 165°
2026-05-01 13:38 43.47624 28.61344 37257 ft 460 kts 165°
2026-05-01 13:39 43.41498 28.63982 37255 ft 461 kts 165°
2026-05-01 13:39 43.35364 28.66618 37265 ft 461 kts 166°
2026-05-01 13:40 43.29235 28.69246 37262 ft 461 kts 166°
2026-05-01 13:40 43.23145 28.71852 37263 ft 461 kts 166°
2026-05-01 13:41 43.17025 28.74467 37249 ft 459 kts 166°
2026-05-01 13:41 43.10930 28.77059 37249 ft 457 kts 167°
2026-05-01 13:42 43.04736 28.78786 37246 ft 452 kts 178°
2026-05-01 13:42 42.98508 28.79042 37246 ft 448 kts 185°
2026-05-01 13:43 42.92264 28.78838 37245 ft 448 kts 185°
2026-05-01 13:43 42.86010 28.78664 37245 ft 448 kts 185°
2026-05-01 13:44 42.79767 28.78498 37231 ft 448 kts 185°
2026-05-01 13:44 42.73551 28.78334 37241 ft 446 kts 185°
2026-05-01 13:45 42.67344 28.78168 37238 ft 446 kts 185°
2026-05-01 13:45 42.61165 28.78004 37238 ft 446 kts 185°
2026-05-01 13:46 42.54949 28.77840 37239 ft 447 kts 185°
2026-05-01 13:46 42.48720 28.77675 37234 ft 447 kts 185°
2026-05-01 13:47 42.42495 28.77511 37234 ft 447 kts 185°
2026-05-01 13:47 42.36274 28.77348 37227 ft 447 kts 185°
2026-05-01 13:48 42.31109 28.77212 37222 ft 446 kts 185°
2026-05-01 13:48 42.23886 28.77023 37236 ft 446 kts 185°
2026-05-01 13:49 42.18684 28.76887 37221 ft 446 kts 185°
2026-05-01 13:49 42.12474 28.76725 37220 ft 446 kts 185°
2026-05-01 13:50 42.06295 28.76591 37218 ft 447 kts 184°
2026-05-01 13:50 42.00070 28.76858 37215 ft 447 kts 182°
2026-05-01 13:50 41.96954 28.77021 37064 ft 448 kts 182°
2026-05-01 13:51 41.93831 28.77168 36560 ft 449 kts 182°
2026-05-01 13:51 41.90699 28.77302 35838 ft 452 kts 182°
2026-05-01 13:51 41.87535 28.77429 34986 ft 456 kts 182°
2026-05-01 13:51 41.84355 28.77553 34287 ft 456 kts 182°
2026-05-01 13:52 41.81185 28.77673 33546 ft 454 kts 183°
2026-05-01 13:52 41.78063 28.77388 32834 ft 446 kts 193°
2026-05-01 13:52 41.75130 28.76376 32147 ft 438 kts 204°
2026-05-01 13:52 41.72401 28.74648 31546 ft 429 kts 214°
2026-05-01 13:53 41.69896 28.72544 31076 ft 422 kts 215°
2026-05-01 13:53 41.64968 28.68424 30027 ft 412 kts 214°
2026-05-01 13:53 41.62549 28.66410 29504 ft 406 kts 214°
2026-05-01 13:54 41.60171 28.64431 29005 ft 400 kts 214°
2026-05-01 13:54 41.57826 28.62480 28502 ft 394 kts 214°
2026-05-01 13:54 41.55511 28.60558 28024 ft 388 kts 215°
2026-05-01 13:54 41.53236 28.58668 27545 ft 382 kts 215°
2026-05-01 13:55 41.50989 28.56801 27287 ft 383 kts 215°
2026-05-01 13:55 41.48713 28.54906 27109 ft 395 kts 215°
2026-05-01 13:55 41.46377 28.52968 26881 ft 393 kts 215°
2026-05-01 13:55 41.44060 28.51051 26444 ft 391 kts 215°
2026-05-01 13:56 41.41751 28.49143 25903 ft 389 kts 215°
2026-05-01 13:56 41.39464 28.47254 25411 ft 384 kts 215°
2026-05-01 13:56 41.37213 28.45396 25020 ft 377 kts 215°
2026-05-01 13:56 41.34992 28.43565 24635 ft 374 kts 215°
2026-05-01 13:57 41.32777 28.41736 24242 ft 375 kts 215°
2026-05-01 13:57 41.30560 28.39909 23862 ft 372 kts 215°
2026-05-01 13:57 41.28369 28.38106 23450 ft 369 kts 215°
2026-05-01 13:57 41.26190 28.36315 23078 ft 367 kts 215°
2026-05-01 13:58 41.24018 28.34528 22692 ft 368 kts 215°
2026-05-01 13:58 41.21841 28.32739 22314 ft 367 kts 215°
2026-05-01 13:58 41.19676 28.30964 21962 ft 363 kts 215°
2026-05-01 13:58 41.17585 28.29255 21852 ft 351 kts 215°
2026-05-01 13:59 41.15539 28.27583 21719 ft 339 kts 215°
2026-05-01 13:59 41.13566 28.25970 21496 ft 330 kts 215°
2026-05-01 13:59 41.11612 28.24369 21077 ft 329 kts 215°
2026-05-01 13:59 41.09676 28.22784 20677 ft 325 kts 215°
2026-05-01 14:00 41.07755 28.21214 20229 ft 323 kts 215°
2026-05-01 14:00 41.05837 28.19675 19846 ft 321 kts 211°
2026-05-01 14:00 41.03707 28.18712 19320 ft 329 kts 191°
2026-05-01 14:00 41.01402 28.18757 18884 ft 335 kts 173°
2026-05-01 14:01 40.99123 28.19356 18484 ft 333 kts 173°
2026-05-01 14:01 40.96863 28.19965 18053 ft 329 kts 172°
2026-05-01 14:01 40.94630 28.20560 17688 ft 325 kts 172°
2026-05-01 14:01 40.92454 28.21133 17332 ft 321 kts 172°
2026-05-01 14:02 40.90271 28.21704 16979 ft 320 kts 172°
2026-05-01 14:02 40.88080 28.22273 16621 ft 320 kts 172°
2026-05-01 14:02 40.85904 28.22839 16270 ft 316 kts 172°
2026-05-01 14:02 40.83745 28.23400 15918 ft 316 kts 172°
2026-05-01 14:03 40.81593 28.23959 15566 ft 314 kts 171°
2026-05-01 14:03 40.79461 28.24523 15219 ft 312 kts 169°
2026-05-01 14:03 40.77391 28.25406 14874 ft 313 kts 159°
2026-05-01 14:03 40.75466 28.26671 14533 ft 312 kts 154°
2026-05-01 14:04 40.73545 28.27992 14190 ft 310 kts 154°
2026-05-01 14:04 40.71631 28.29297 13828 ft 309 kts 155°
2026-05-01 14:04 40.69745 28.30666 13468 ft 311 kts 145°
2026-05-01 14:04 40.68283 28.32761 13131 ft 312 kts 120°
2026-05-01 14:05 40.67592 28.35448 12776 ft 312 kts 96°
2026-05-01 14:05 40.67482 28.38290 12414 ft 309 kts 90°
2026-05-01 14:05 40.67503 28.41106 12071 ft 306 kts 89°
2026-05-01 14:05 40.67525 28.43906 11663 ft 304 kts 89°
2026-05-01 14:06 40.67515 28.46694 11294 ft 301 kts 90°
2026-05-01 14:06 40.67478 28.49382 11164 ft 285 kts 90°
2026-05-01 14:06 40.67429 28.51906 10838 ft 276 kts 90°
2026-05-01 14:06 40.67373 28.54410 10364 ft 272 kts 90°
2026-05-01 14:07 40.67316 28.56887 9943 ft 268 kts 90°
2026-05-01 14:07 40.67261 28.59323 9572 ft 264 kts 90°
2026-05-01 14:07 40.67196 28.61700 9288 ft 256 kts 94°
2026-05-01 14:08 40.65301 28.65532 8992 ft 266 kts 149°
2026-05-01 14:08 40.63674 28.66684 8981 ft 265 kts 151°
2026-05-01 14:08 40.62024 28.67799 8978 ft 268 kts 150°
2026-05-01 14:08 40.60365 28.68926 8978 ft 267 kts 150°
2026-05-01 14:09 40.58838 28.70268 8984 ft 263 kts 138°
2026-05-01 14:09 40.57520 28.71938 8979 ft 263 kts 133°
2026-05-01 14:09 40.56227 28.73640 8985 ft 263 kts 133°
2026-05-01 14:09 40.54923 28.75343 8981 ft 263 kts 133°
2026-05-01 14:10 40.53633 28.77036 8979 ft 263 kts 129°
2026-05-01 14:10 40.52531 28.78944 8971 ft 261 kts 118°
2026-05-01 14:10 40.51678 28.81037 8969 ft 259 kts 115°
2026-05-01 14:10 40.50842 28.83105 8970 ft 260 kts 116°
2026-05-01 14:11 40.49987 28.85194 8972 ft 260 kts 116°
2026-05-01 14:11 40.48555 28.89513 8969 ft 255 kts 99°
2026-05-01 14:11 40.48215 28.91801 8974 ft 256 kts 98°
2026-05-01 14:12 40.47873 28.94104 8964 ft 256 kts 99°
2026-05-01 14:12 40.47523 28.96394 8966 ft 255 kts 99°
2026-05-01 14:12 40.47192 28.98696 8963 ft 257 kts 95°
2026-05-01 14:12 40.47143 29.01013 8968 ft 254 kts 83°
2026-05-01 14:13 40.47333 29.03322 8960 ft 255 kts 82°
2026-05-01 14:13 40.47454 29.04859 8962 ft 255 kts 82°
2026-05-01 14:13 40.48054 29.07795 8960 ft 248 kts 55°
2026-05-01 14:13 40.49278 29.09342 8960 ft 251 kts 28°
2026-05-01 14:14 40.50949 29.09941 8914 ft 252 kts
2026-05-01 14:14 40.52668 29.09541 8693 ft 252 kts 347°
2026-05-01 14:14 40.54378 29.08955 8285 ft 254 kts 348°
2026-05-01 14:14 40.56066 29.08374 8022 ft 247 kts 349°
2026-05-01 14:15 40.57744 29.07813 7545 ft 251 kts 349°
2026-05-01 14:15 40.59430 29.07256 7246 ft 247 kts 348°
2026-05-01 14:15 40.61107 29.06711 6797 ft 249 kts 349°
2026-05-01 14:15 40.62774 29.06161 6506 ft 245 kts 349°
2026-05-01 14:16 40.64427 29.05615 6115 ft 245 kts 350°
2026-05-01 14:16 40.66063 29.05076 5761 ft 243 kts 350°
2026-05-01 14:16 40.67688 29.04541 5507 ft 236 kts 350°
2026-05-01 14:16 40.69248 29.04026 5352 ft 226 kts 351°
2026-05-01 14:17 40.70741 29.03536 5199 ft 218 kts 351°
2026-05-01 14:17 40.72183 29.03064 5046 ft 207 kts 351°
2026-05-01 14:17 40.73546 29.02607 4925 ft 196 kts 351°
2026-05-01 14:17 40.74807 29.02222 4856 ft 184 kts 354°
2026-05-01 14:18 40.76038 29.01900 4685 ft 173 kts
2026-05-01 14:18 40.77145 29.02236 4504 ft 160 kts 33°
2026-05-01 14:18 40.77899 29.03279 4354 ft 158 kts 59°
2026-05-01 14:18 40.78269 29.04097 4282 ft 156 kts 57°
2026-05-01 14:19 40.79078 29.05602 4099 ft 143 kts 49°
2026-05-01 14:19 40.79647 29.06588 3981 ft 126 kts 53°
2026-05-01 14:19 40.80078 29.07531 3936 ft 120 kts 57°
2026-05-01 14:19 40.80470 29.08514 3857 ft 120 kts 59°
2026-05-01 14:20 40.80835 29.09492 3723 ft 118 kts 59°
2026-05-01 14:20 40.81550 29.11430 3472 ft 119 kts 59°
2026-05-01 14:20 40.81907 29.12402 3322 ft 116 kts 59°
2026-05-01 14:21 40.82262 29.13361 3165 ft 117 kts 59°
2026-05-01 14:21 40.82618 29.14330 3011 ft 117 kts 60°
2026-05-01 14:21 40.82974 29.15296 2854 ft 116 kts 59°
2026-05-01 14:22 40.83683 29.17219 2533 ft 117 kts 59°
2026-05-01 14:22 40.84036 29.18182 2374 ft 115 kts 58°
2026-05-01 14:22 40.84387 29.19132 2217 ft 116 kts 59°
2026-05-01 14:22 40.84734 29.20075 2062 ft 115 kts 58°
2026-05-01 14:23 40.85084 29.21025 1899 ft 115 kts 58°
2026-05-01 14:23 40.85434 29.21977 1745 ft 115 kts 58°
2026-05-01 14:23 40.85784 29.22929 1573 ft 115 kts 58°
2026-05-01 14:23 40.86136 29.23883 1415 ft 115 kts 58°
2026-05-01 14:24 40.86487 29.24839 1255 ft 117 kts 59°
2026-05-01 14:24 40.86851 29.25827 1079 ft 117 kts 59°
2026-05-01 14:24 40.87196 29.26772 917 ft 115 kts 60°
2026-05-01 14:24 40.87544 29.27715 758 ft 117 kts 62°
2026-05-01 14:25 40.87914 29.28709 617 ft 122 kts 62°
2026-05-01 14:25 40.88280 29.29695 392 ft 118 kts 61°
2026-05-01 14:25 40.88644 29.30683 286 ft 117 kts 62°
2026-05-01 14:25 40.88917 29.31423 306 ft 61 kts 64°
2026-05-01 14:26 40.89040 29.31765 309 ft 34 kts 64°
2026-05-01 14:26 40.89241 29.32277 303 ft 32 kts 51°
2026-05-01 14:26 40.89386 29.32448 306 ft 9 kts 34°
2026-05-01 14:27 40.89436 29.32493 306 ft 8 kts 34°
2026-05-01 14:27 40.89485 29.32494 307 ft 7 kts 329°
2026-05-01 14:27 40.89499 29.32406 306 ft 14 kts 283°
2026-05-01 14:28 40.89669 29.32298 307 ft 15 kts 334°
2026-05-01 14:28 40.89762 29.32239 307 ft 14 kts 335°
2026-05-01 14:28 40.89846 29.32184 311 ft 13 kts 333°
2026-05-01 14:28 40.89922 29.32135 313 ft 12 kts 334°
2026-05-01 14:29 40.89997 29.32086 317 ft 11 kts 334°
2026-05-01 14:29 40.90054 29.32054 320 ft 8 kts 346°
2026-05-01 14:30 40.90227 29.32428 319 ft 22 kts 64°
2026-05-01 14:30 40.90281 29.32569 320 ft 11 kts 53°
2026-05-01 14:30 40.90347 29.32573 320 ft 11 kts 334°
2026-05-01 14:31 40.90515 29.32463 320 ft 14 kts 334°
2026-05-01 14:31 40.90597 29.32398 320 ft 7 kts 303°
2026-05-01 14:31 40.90632 29.32335 319 ft 10 kts 327°
2026-05-01 14:31 40.90696 29.32289 320 ft 12 kts 334°
2026-05-01 14:32 40.90729 29.32201 320 ft 12 kts 250°
2026-05-01 14:32 40.90703 29.32127 320 ft 14 kts 244°
2026-05-01 14:32 40.90638 29.31952 320 ft 16 kts 244°
2026-05-01 14:32 40.90644 29.31900 320 ft 7 kts 313°
2026-05-01 14:33 40.90673 29.31876 320 ft 4 kts 332°
2026-05-01 14:33 40.90701 29.31858 320 ft 3 kts 335°
2026-05-01 14:33 40.90713 29.31850 320 ft 0 kts 334°
2026-05-01 14:38 40.90712 29.31850 320 ft 0 kts 334°